Tracking 17264 objects as of 29-August-2015
HD Live streaming from Space Station

COSMOS 1481 DEB

Track COSMOS 1481 DEB now!
COSMOS 1481 DEB is classified as:


NORAD ID: 14192
Int'l Code: 1983-070E
Perigee: 1,849.2 km
Apogee: 38,080.2 km
Inclination: 67.2 °
Period: 708.9 minutes
Semi major axis: 26335 km
RCS: 2.531 m2 (large)
Launch date: July 8, 1983
Source: Commonwealth of Independent States (former USSR) (CIS)

Note: This is SATELLITE DEBRIS
Your satellite tracking list
Your tracking list is empty





NASA's NSSDC Master Catalog

Two Line Element Set (TLE):
1 14192U 83070E   15239.57177494 +.00000643 +00000-0 +00000-0 0  9992
2 14192 067.1880 150.2206 6878686 017.1868 123.8319 02.03135090159459

Source of the keplerian elements: AFSPC

N2YO: 251